PICOSAT 3

Satellite information

Favourite Embed

Satellite Type and Status

PAYLOADIN ORBIT

Key statistics

Satellite PICOSAT 3 at a glance.

Uptime

9232

Days in orbit

Revolutions

≈ 14.6

Per day

Orbit

SSO

Sun Synchronous Orbit

Inclination

100.2

Latest

Satellite identification and parameters

Extended collection of information and parameters for PICOSAT 3.

Object identification

Identified? True

Debris? False

Object name: PICOSAT 3

International designator: 2000-004J

Object number (NORAD): 26091

Object ID (CCSDS): 26091

Country: UNITED STATES OF AMERICA (US)

Current information (Y/N): Y

RCS size: SMALL

Orbital parameters

Period: 98.768 minutes

Inclination: 100.2092 deg

SMA: 7077.911 km

Apoapsis: 718.129 km

Periapsis: 681.423 km

RAAN: 141.5912 deg

Eccentricy: 0.002593

Argument of periapsis: 67.1568 deg

Mean anomaly: 293.2358 deg

Mean motion: 14.57958428 rev/day

Mean motion (dot): 0.00003146 rev/day2

B* drag term: 0.00069648 1/REarth

Two-line elements (TLE)

Creation date: May 6, 2025, 3:54 a.m.

Reference frame: TEME

Reference center: EARTH

Epoch: May 5, 2025, 2:11 p.m. UTC

TLE line 0: 0 PICOSAT 3

TLE line 1: 1 26091U 00004J 25125.59161142 .00003146 00000-0 69648-3 0 9996

TLE line 2: 2 26091 100.2092 141.5912 0025930 67.1568 293.2358 14.57958428330998

Live tracking on map

Real-time ground track for satellite PICOSAT 3.

In-orbit conjunctions

A list of the most updated potential collisions computed for object PICOSAT 3.

Target Orbit TCA Probability of collision Miss distance Type
FENGYUN 1C DEB SSO 2025-04-25 04:10:25 0.0002059332 567.0 (m) DEBRIS
COSMOS 2251 DEB LEO 2025-01-21 05:11:30 0.0001403199 571.0 (m) DEBRIS
FENGYUN 1C DEB SSO 2025-01-05 19:36:11 0.0001009875 532.0 (m) DEBRIS

Associated space launch

The JAWSAT (Joint Air Force Academy / Weber State University Satellite) project was developed by students working alongside aerospace professionals. Initially designed with a pulsed-plasma thruster to train Air Force Academy cadets (see JAWSAT), the mission has since evolved to include the efforts of several universities, local aerospace companies, the Air Force Academy, the Air Force Research Laboratory, and NASA. Utilizing breakthrough technologies, JAWSAT deployed four satellites when it reached orbit. The onboard imaging system recorded the deployment of each payload with its six digital cameras. The first free-flying Academy satellite, FalconSat-1 carried the CHAWS (Charging Hazards and Wake Studies) experiment developed by the Physics Department at the Academy.

PICOSAT 3 was lifted into orbit during the mission ‘Minotaur I | JAWSAT & FalconSat 1’, on board a Minotaur I space rocket.

The launch took place on Jan. 27, 2000, 3:03 a.m. from Space Launch Complex 8.

For more information about the launch, click the button.

Launch to space Minotaur I | JAWSAT & FalconSat 1
Minotaur I | JAWSAT & FalconSat 1

Agency: N/A

Status: Launch Successful

Launch date: Jan. 27, 2000, 3:03 a.m. UTC

Rocket: Minotaur I

Launch pad: Space Launch Complex 8

Location: Vandenberg SFB, CA, USA

...

Latest news about this satellite

There are no fresh news available about this satellite. Check back as we update our databases every day.


Newsletter sign-up

Weekly statistics, charts and insights to help you stay on top of the space industry.